Regional Weather Roundup
Issued by NWS

Home | Current Version | Previous Version | Graphics & Text | Print | Product List | Glossary On
Versions: 1 2 3 4 5 6 7 8 9 10 11 12 13 14 15 16 17 18 19 20 21 22 23 24 25 26 27 28 29 30 31 32 33 34 35 36 37 38 39 40 41 42 43 44 45 46 47 48 49 50
000
ASUS43 KLMK 020002
RWRKY
KENTUCKY REGIONAL WEATHER ROUNDUP
NATIONAL WEATHER SERVICE LOUISVILLE KY
800 PM EDT WED OCT 01 2014

NOTE "FAIR" INDICATES FEW OR NO CLOUDS BELOW 12,000 FEET
WITH NO SIGNIFICANT WEATHER AND/OR OBSTRUCTIONS TO VISIBILITY.

KYZ001>023-026-027-061>063-070>075-020100-
WESTERN AND SOUTH CENTRAL KENTUCKY

CITY           SKY/WX    TMP DP  RH WIND       PRES   REMARKS
PADUCAH        CLEAR     78  61  55 S5        29.88R
HENDERSON      NOT AVBL
OWENSBORO      CLEAR     78  56  46 SE6       29.91S
HOPKINSVILLE   CLEAR     80  58  45 S6        29.92R
BOWLING GREEN  CLEAR     73  56  54 E3        29.94R
GLASGOW        NOT AVBL
$$

KYZ024-025-028>034-038-045-046-053-020100-
NORTH CENTRAL KENTUCKY

CITY           SKY/WX    TMP DP  RH WIND       PRES   REMARKS
LOUISVILLE/SDF PTCLDY    79  55  43 E5        29.94R
LOUISVILLE/LOU PTCLDY    77  56  48 CALM      29.95R
FORT KNOX      PTCLDY    73  60  62 E3        29.94R
$$

KYZ035>037-039>044-047>052-055>060-089>105-020100-
NORTHEAST KENTUCKY

CITY           SKY/WX    TMP DP  RH WIND       PRES   REMARKS
LEXINGTON      CLEAR     75  57  53 E3        29.99R
COVINGTON      PTCLDY    69  53  56 E6        29.99R
FRANKFORT      CLEAR     71  58  63 CALM      29.96S
$$

KYZ054-064>069-076>088-106>120-020100-
SOUTHEAST KENTUCKY

CITY           SKY/WX    TMP DP  RH WIND       PRES   REMARKS
JACKSON        MOCLDY    73  57  57 CALM      30.02S
LONDON         CLEAR     71  58  63 E3        30.01R
SOMERSET       CLEAR     70  59  68 CALM      29.99S
MIDDLESBORO    CLEAR     67  59  75 W3        30.02R
MONTICELLO     CLEAR     66  58  75 CALM      30.00S
$$



USA.gov is the U.S. government's official web portal to all federal, state and local government web resources and services.